[[{"header":{"parameterUnit":"m.s-1","parameterCategory":1,"la1":30.2991,"la2":30.254,"lo1":-89.0895,"lo2":-89.0444,"dy":0.0017,"dx":0.0017,"nx":28,"ny":28,"refTime":"2025-09-16T09:00:00:Z","depth":0,"parameterNumber":2,"parameterNumberName":"U-component_of_WINDS"},"data":[0,0,0,0,0,0,0,0,0,0,0,0,0,0,0,0,0,0,0,0,0,0,0,0,0,0,0,0,0,0,0,0,0,0,0,0,0,0,0,0,0,0,0,0,0,0,0,0,0,0,0,0,0,0,0,0,0,0,1.938,1.938,0,1.9384,1.9384,1.9384,1.9322,1.9321,1.9319,1.9317,1.9322,1.9324,1.9325,0,0,0,0,0,0,0,0,0,0,0,0,0,1.9317,1.9318,1.938,1.938,1.938,1.9384,1.9384,1.9384,1.9323,1.9321,1.9319,1.9317,1.9321,1.9323,1.9325,0,0,0,0,0,0,0,0,0,0,0,0,0,1.9335,1.9319,1.938,1.935,1.9347,1.9384,1.9384,1.9384,1.9323,1.9321,1.9318,1.9316,1.9321,1.9323,1.9326,1.9392,0,0,1.9333,1.9335,0,0,0,0,0,0,0,0,1.9334,1.9337,1.9354,1.9352,1.9349,1.935,1.9364,1.9387,1.9324,1.9332,1.9317,1.9314,1.9333,1.9335,1.9341,1.9392,1.9392,1.9334,1.9335,1.9336,1.9337,0,0,0,0,0,0,0,1.9333,1.9337,1.9382,1.9354,1.9351,1.9335,1.9335,1.9368,1.9347,1.9331,1.9327,1.9328,1.9331,1.9339,1.9341,1.9392,1.9334,1.9336,1.9337,1.9338,1.9494,1.9497,0,0,0,0,0,0,1.9336,1.9336,1.9381,1.9382,1.9335,1.9339,1.9338,1.9352,1.9346,1.9343,1.933,1.9325,1.9336,1.9338,1.9341,1.9415,1.9336,1.9339,1.934,1.9492,1.9495,1.9498,0,0,0,0,0,0,1.9335,1.934,1.9381,1.9358,1.9362,1.9342,1.9359,1.9354,1.9361,1.9346,1.9342,1.9342,1.9334,1.9337,1.9379,1.9414,1.934,1.9342,1.9489,1.9493,1.9496,1.9565,0,0,0,0,0,0,1.9333,1.934,1.9366,1.9359,1.9363,1.942,1.9361,1.9356,1.9365,1.9359,1.9355,1.9352,1.9332,1.9375,1.9381,1.9416,1.9344,1.9485,1.949,1.9495,1.956,1.9571,1.9581,0,0,0,0,0,1.9331,1.9386,1.9367,1.9373,1.9395,1.9422,1.9425,1.94,1.9369,1.9393,1.9383,1.9352,1.941,1.938,1.9386,1.9422,1.9483,1.9489,1.9495,1.9555,1.9569,1.958,0,0,0,0,0,0,1.9398,1.9384,1.9364,1.9418,1.9422,1.9412,1.9442,1.9416,1.9429,1.9422,1.9392,1.9392,1.9438,1.9435,1.9402,1.9485,1.9441,1.9448,1.9484,1.9497,1.9508,1.9506,1.9346,0,0,0,0,0,1.9419,1.9443,1.943,1.9479,1.9482,1.9462,1.9473,1.9454,1.9456,1.9458,1.9451,1.9454,1.9472,1.9485,1.9502,1.956,1.9556,1.9588,1.9598,1.9607,1.9613,1.964,1.9653,1.9517,1.9517,1.9517,0,0,1.9463,1.9459,1.9475,1.9492,1.9493,1.9517,1.9464,1.9492,1.9509,1.9462,1.95,1.9495,1.9497,1.9546,1.9567,1.9545,1.965,1.9614,1.9622,1.9622,1.9647,1.966,1.9671,1.9521,1.952,1.952,0,0,1.9554,1.9555,1.9594,1.9595,1.9596,1.9582,1.9592,1.9585,1.958,1.9618,1.9581,1.9602,1.9635,1.9637,1.9642,1.9732,1.9703,1.9739,1.9793,1.9819,1.983,1.9839,1.9868,1.9879,1.9745,1.9745,1.9746,0,1.9608,1.9643,1.9617,1.9647,1.9654,1.9612,1.965,1.9653,1.966,1.9666,1.9641,1.968,1.9678,1.9725,1.9747,1.9754,1.9762,1.9738,1.9831,1.984,1.9848,1.9875,1.9886,1.9749,1.9749,1.9749,1.9748,0,1.9708,1.9733,1.9764,1.977,1.9781,1.9816,1.9794,1.9808,1.9788,1.9777,1.9814,1.9811,1.9824,1.9835,1.9817,1.9879,1.9865,1.9836,1.9791,1.9865,1.989,1.9901,1.9755,1.9754,1.9753,1.9752,0,0,1.9841,1.9831,1.9842,1.9843,1.9841,1.9859,1.9891,1.9903,1.9915,1.9921,1.9945,1.9974,1.9946,1.9952,1.9934,1.9958,2.0025,1.9925,1.9925,1.9941,2.009,2.0109,2.0122,2.0007,2.0009,2.001,2.0089,0,1.9926,1.9979,1.9955,2.001,2.0031,1.9991,2.0018,2.0019,2.0009,2.0025,2.0015,2.0034,1.9998,2.0001,2.0023,2.0012,2.0054,2.0007,2.0027,2.0028,2.0024,2.0135,2.0156,2.023,2.0099,2.01,2.0101,0,2.0033,2.0042,2.0098,2.0089,2.0097,2.0122,2.013,2.0146,2.0146,2.0137,2.0143,2.0118,2.0147,2.0105,2.0143,2.0111,2.0119,2.0114,2.0117,2.0115,2.0067,2.0133,2.0253,2.0263,2.0117,2.0116,2.0115,0,2.0119,2.0146,2.0182,2.0184,2.0176,2.0193,2.0191,2.0188,2.0196,2.0204,2.0208,2.022,2.0226,2.0235,2.0213,2.0185,2.0253,2.021,2.0245,2.0245,2.0259,2.0257,2.0378,2.0269,2.0269,2.0269,2.0269,0,2.0215,2.0251,2.022,2.0242,2.0279,2.0252,2.029,2.0283,2.0281,2.03,2.0268,2.0286,2.0258,2.0274,2.0258,2.029,2.0294,2.0286,2.028,2.0287,2.0287,2.0288,2.0281,2.0272,2.0271,2.0271,2.027,0,2.0317,2.0298,2.0334,2.0323,2.0321,2.0349,2.0338,2.0357,2.0345,2.037,2.0374,2.0355,2.0371,2.0351,2.0367,2.0356,2.0398,2.0387,2.0398,2.0393,2.0428,2.0424,2.0551,2.0565,2.0451,2.0452,2.0453,0,2.0378,2.0404,2.0394,2.0404,2.0403,2.042,2.0428,2.0402,2.0411,2.0412,2.043,2.0444,2.0453,2.0481,2.0468,2.0479,2.0466,2.051,2.0467,2.0472,2.0462,2.0459,2.046,2.0517,2.0519,2.052,2.0521,0,2.0487,2.0475,2.0487,2.0496,2.0505,2.0511,2.0514,2.0524,2.0497,2.0509,2.0525,2.0532,2.0547,2.056,2.0567,2.0564,2.0537,2.0535,2.0543,2.0548,2.0551,2.0546,2.0418,2.0531,2.053,2.0529,2.0529,2.0528,2.0567,2.0587,2.0582,2.0596,2.0595,2.0599,2.0615,2.0604,2.0617,2.0626,2.061,2.063,2.0627,2.0633,2.0633,2.0647,2.0628,2.0641,2.0643,2.0646,2.0649,2.0552,2.0649,2.0649,2.0648,2.0648,2.0648,0,2.0671,2.0665,2.0679,2.0683,2.0693,2.0668,2.067,2.068,2.0697,2.0696,2.0706,2.0722,2.0735,2.0723,2.0732,2.0746,2.0733,2.0749,2.0746,2.0745,2.0668,2.0658,2.0758,2.0758,2.0758,2.0758,2.0758,2.0758,2.0725,2.0756,2.0744,2.0774,2.0768,2.0786,2.0789,2.0791,2.079,2.081,2.0819,2.0811,2.0806,2.0814,2.0824,2.082,2.0823,2.0842,2.0834,2.0761,2.0751,2.074,2.0731,2.0844,2.0844,2.0909,2.091,2.091]},{"header":{"parameterUnit":"m.s-1","parameterCategory":1,"la1":30.2991,"la2":30.254,"lo1":-89.0895,"lo2":-89.0444,"dy":0.0017,"dx":0.0017,"nx":28,"ny":28,"refTime":"2025-09-16T09:00:00:Z","depth":0,"parameterNumber":3,"parameterNumberName":"V-component_of_WINDS"},"data":[0,0,0,0,0,0,0,0,0,0,0,0,0,0,0,0,0,0,0,0,0,0,0,0,0,0,0,0,0,0,0,0,0,0,0,0,0,0,0,0,0,0,0,0,0,0,0,0,0,0,0,0,0,0,0,0,0,0,-0.3587,-0.3587,0,-0.3542,-0.3541,-0.3541,-0.3556,-0.3557,-0.3558,-0.3559,-0.3511,-0.3509,-0.3507,0,0,0,0,0,0,0,0,0,0,0,0,0,-0.3687,-0.3685,-0.3587,-0.3587,-0.3586,-0.3542,-0.3541,-0.3541,-0.3556,-0.3557,-0.3558,-0.3559,-0.3512,-0.3509,-0.3507,0,0,0,0,0,0,0,0,0,0,0,0,0,-0.3643,-0.3685,-0.3587,-0.3588,-0.3588,-0.3542,-0.3541,-0.3541,-0.3555,-0.3557,-0.3558,-0.356,-0.3513,-0.3509,-0.3506,-0.3457,0,0,-0.3496,-0.3495,0,0,0,0,0,0,0,0,-0.3645,-0.3639,-0.3589,-0.3588,-0.3588,-0.3556,-0.3559,-0.3512,-0.3555,-0.3568,-0.3559,-0.356,-0.3525,-0.3521,-0.3509,-0.3454,-0.3452,-0.3496,-0.3494,-0.3493,-0.3492,0,0,0,0,0,0,0,-0.3648,-0.3641,-0.3569,-0.3588,-0.3587,-0.3591,-0.3586,-0.355,-0.3538,-0.3567,-0.3568,-0.3562,-0.3525,-0.3512,-0.3508,-0.3452,-0.3496,-0.3493,-0.3491,-0.349,-0.3356,-0.3355,0,0,0,0,0,0,-0.3652,-0.3644,-0.3571,-0.3568,-0.3621,-0.3588,-0.3583,-0.3565,-0.3539,-0.3536,-0.3561,-0.3563,-0.3517,-0.3512,-0.3506,-0.3447,-0.3493,-0.3489,-0.3488,-0.3358,-0.3356,-0.3354,0,0,0,0,0,0,-0.3654,-0.3645,-0.3573,-0.3606,-0.3597,-0.3585,-0.3564,-0.3563,-0.355,-0.3535,-0.3532,-0.355,-0.3518,-0.3511,-0.3469,-0.3446,-0.3488,-0.3485,-0.336,-0.3357,-0.3355,-0.3329,0,0,0,0,0,0,-0.3657,-0.3646,-0.3627,-0.3606,-0.3595,-0.3536,-0.3563,-0.3561,-0.3545,-0.3547,-0.3524,-0.3521,-0.3518,-0.3474,-0.3466,-0.3442,-0.3482,-0.3362,-0.3359,-0.3356,-0.3331,-0.3326,-0.3321,0,0,0,0,0,-0.366,-0.362,-0.3625,-0.3617,-0.3571,-0.3535,-0.3529,-0.3527,-0.3543,-0.3523,-0.3514,-0.3522,-0.345,-0.347,-0.3461,-0.3435,-0.3363,-0.3359,-0.3356,-0.3334,-0.3327,-0.3321,0,0,0,0,0,0,-0.3638,-0.3617,-0.3623,-0.3575,-0.3557,-0.3537,-0.3513,-0.3519,-0.3495,-0.3498,-0.3496,-0.3491,-0.3448,-0.3438,-0.346,-0.3387,-0.3409,-0.3403,-0.3395,-0.3388,-0.3383,-0.3386,-0.348,0,0,0,0,0,-0.3627,-0.36,-0.3583,-0.3543,-0.3533,-0.3525,-0.3509,-0.3509,-0.349,-0.3482,-0.3469,-0.345,-0.3423,-0.3405,-0.338,-0.3331,-0.3326,-0.3309,-0.3304,-0.3299,-0.3294,-0.3269,-0.3261,-0.3342,-0.3342,-0.3343,0,0,-0.3605,-0.3591,-0.3573,-0.3538,-0.3524,-0.3495,-0.3518,-0.3486,-0.3466,-0.3477,-0.3437,-0.3427,-0.3406,-0.3361,-0.334,-0.3351,-0.3271,-0.3295,-0.3291,-0.3288,-0.3264,-0.3257,-0.325,-0.334,-0.334,-0.3341,0,0,-0.355,-0.3536,-0.3502,-0.3487,-0.3466,-0.3461,-0.3453,-0.3433,-0.3427,-0.3388,-0.3396,-0.3371,-0.3325,-0.331,-0.3296,-0.3238,-0.3245,-0.323,-0.3201,-0.3177,-0.317,-0.3165,-0.3145,-0.3137,-0.3225,-0.3225,-0.3225,0,-0.3525,-0.3483,-0.3483,-0.3451,-0.3436,-0.3446,-0.3411,-0.3398,-0.3369,-0.3358,-0.337,-0.3314,-0.33,-0.3252,-0.3238,-0.3227,-0.3218,-0.3232,-0.3171,-0.3166,-0.316,-0.3141,-0.3134,-0.3224,-0.3224,-0.3224,-0.3224,0,-0.3454,-0.3424,-0.3399,-0.3372,-0.3354,-0.3321,-0.3316,-0.3298,-0.33,-0.3294,-0.3255,-0.3239,-0.3211,-0.32,-0.3201,-0.3153,-0.316,-0.3172,-0.3194,-0.3151,-0.3133,-0.3125,-0.3221,-0.3222,-0.3222,-0.3223,0,0,-0.3381,-0.3356,-0.3347,-0.3336,-0.3314,-0.3292,-0.326,-0.3233,-0.3218,-0.3199,-0.3172,-0.3134,-0.3145,-0.313,-0.313,-0.3108,-0.3065,-0.3123,-0.3123,-0.3113,-0.3012,-0.3003,-0.2994,-0.307,-0.3069,-0.3068,-0.3014,0,-0.3325,-0.3269,-0.3269,-0.3218,-0.3191,-0.3202,-0.3174,-0.3158,-0.3152,-0.3129,-0.3123,-0.3096,-0.3113,-0.3104,-0.3083,-0.3075,-0.3045,-0.3079,-0.3046,-0.3044,-0.305,-0.2985,-0.2975,-0.2924,-0.3007,-0.3005,-0.3004,0,-0.3251,-0.323,-0.3176,-0.3161,-0.3149,-0.3125,-0.3101,-0.3079,-0.3062,-0.3059,-0.3043,-0.3047,-0.3016,-0.304,-0.2996,-0.302,-0.3006,-0.3001,-0.2999,-0.2995,-0.3021,-0.2979,-0.2908,-0.2901,-0.2993,-0.2994,-0.2995,0,-0.3204,-0.3163,-0.3126,-0.3116,-0.3096,-0.3078,-0.3069,-0.3054,-0.3039,-0.3018,-0.3009,-0.2985,-0.2972,-0.2954,-0.2952,-0.2969,-0.2909,-0.2932,-0.2906,-0.2906,-0.2892,-0.2892,-0.2817,-0.2884,-0.2884,-0.2884,-0.2884,0,-0.3141,-0.3107,-0.3105,-0.3082,-0.3045,-0.3046,-0.301,-0.3003,-0.2989,-0.2966,-0.2973,-0.2951,-0.295,-0.2927,-0.2926,-0.2891,-0.2885,-0.2882,-0.2882,-0.2881,-0.2881,-0.2872,-0.2875,-0.2882,-0.2882,-0.2883,-0.2883,0,-0.3081,-0.3078,-0.3039,-0.3024,-0.302,-0.2994,-0.2981,-0.296,-0.2956,-0.2926,-0.2919,-0.2912,-0.2886,-0.2883,-0.2852,-0.2851,-0.2809,-0.2812,-0.2815,-0.2815,-0.2789,-0.2792,-0.2705,-0.2694,-0.2768,-0.2767,-0.2766,0,-0.3041,-0.3016,-0.3,-0.2985,-0.2975,-0.295,-0.2936,-0.2936,-0.292,-0.29,-0.2881,-0.2856,-0.2836,-0.2794,-0.2787,-0.2764,-0.2767,-0.2738,-0.2763,-0.2764,-0.2767,-0.2768,-0.2766,-0.2733,-0.2732,-0.2731,-0.2731,0,-0.297,-0.297,-0.2948,-0.2927,-0.2909,-0.2891,-0.2875,-0.2863,-0.2862,-0.2843,-0.2817,-0.2802,-0.2772,-0.2747,-0.2725,-0.2716,-0.2723,-0.2723,-0.2716,-0.2715,-0.2717,-0.2716,-0.2801,-0.2725,-0.2725,-0.2726,-0.2726,-0.2726,-0.2919,-0.2898,-0.2884,-0.286,-0.2848,-0.2833,-0.2813,-0.2807,-0.2785,-0.2761,-0.2763,-0.2734,-0.2719,-0.2691,-0.268,-0.2658,-0.2668,-0.2657,-0.2654,-0.2652,-0.2649,-0.2721,-0.2654,-0.2654,-0.2655,-0.2655,-0.2655,0,-0.2849,-0.2841,-0.2819,-0.2796,-0.2778,-0.2788,-0.2771,-0.2755,-0.273,-0.2716,-0.2696,-0.2667,-0.2644,-0.2635,-0.2613,-0.2597,-0.26,-0.2591,-0.2592,-0.259,-0.2642,-0.2651,-0.2589,-0.2589,-0.2589,-0.2589,-0.2589,-0.2589,-0.281,-0.2775,-0.2774,-0.2734,-0.2726,-0.2698,-0.2688,-0.2675,-0.2664,-0.2631,-0.2612,-0.2607,-0.2596,-0.2573,-0.2552,-0.255,-0.2542,-0.2531,-0.2531,-0.2579,-0.2586,-0.2592,-0.26,-0.2529,-0.2529,-0.2481,-0.248,-0.248]}]]